CZ-6A DEB, 55886

Orbit data source: Space-Track

CZ-6A DEB, 55886 is space debris in SSO originally from a launch on Fri, 11 Nov 2022 UTC launched from the Taiyaun Space Center, China (TSC). Debris objects in space refer to the collection of defunct objects orbiting the Earth. Examples of debris include non-operational satellites, rocket bodies, and fragments generated from explosions, collisions, or faulty payload assembly.

Loading next visibility...
Identifier
55886, 2022-151AAJ
Orbit
SSO
Country
Flag of CNCN / PRC
Related business
Manufacturer
SAST
Mission
Spacecraft
Bus & Motor
Unknown
Mass
Unknown
Launch date (UTC)
2022-11-11 (4 years ago)
Launch vehicle
Unknown
Launch site
Taiyaun Space Center, China (TSC)
Object type
Payload
Rocket body
Debris
Shape & HBR
Unknown shape, 0.1 m
Radar Cross Section
Small (<0.1 m²)

Expand to show TLE details & history
Last TLE update: 1 day ago

TLE from 1 day ago
0 CZ-6A DEB
1 55886U 22151AAJ 26237.56808669  .00004914  00000-0  14084-2 0  9998
2 55886  98.7492 282.2299 0040074  80.6261 279.9456 14.44951620106415
Epoch: 2026-08-25T13:38Z
TLE epoch observation values (Epoch: 2026-08-25T13:38:02.690Z)
Latitude
-0.00012°
Longitude
103.88514°
Altitude
740.314 km
Speed
7.487 km/s
True Right ascension
18h 48m 55s
True Declination
0° 00' 00"
Sunlit
Object was in full shadow at epoch
Visualization orbit readout
Latitude
Unknown
Longitude
Unknown
Altitude
Unknown
Speed
Unknown
Apparent Right ascension
Unknown
Apparent Declination
Unknown
Sunlit
N/A
Visualization observer readout
Local Sidereal Time
11:35:39
Azimuth
Unknown
Elevation
Unknown
Doppler factor
Unknown
Orbital elements
Apogee altitude
767.835 km
Perigee altitude
710.79 km
Semi-major axis
7,117.449 km
Eccentricity
0.00401
Inclination
98.7492°
RAAN
282.2299°
Arg. of periapsis
80.6261°
True anomaly
279.4929°
Mean anomaly
279.9456°
Eccentric anomaly
279.71929°
Mean motion
3.61457 °/min
Orbital period
99.6 mins
BSTAR
0.0014084
Loading maneuver chart data...
Computing Atmospheric mass density...
Loading historical data...
Loading historical data...
Loading historical data...
Loading historical data...
Loading historical data...
Loading historical data...
Loading historical data...

Documentation

Showing up to 5 results
|